TimeCDT,TemperatureF,Dew PointF,Humidity,Sea Level PressureIn,VisibilityMPH,Wind Direction,Wind SpeedMPH,Gust SpeedMPH,PrecipitationIn,Events,Conditions,WindDirDegrees,DateUTC
12:13 AM,78.8,71.6,78,29.66,10.0,SSE,9.2,-,N/A,Thunderstorm,Scattered Clouds,150,2013-06-26 05:13:00
12:33 AM,77.0,71.6,83,29.65,10.0,SSE,9.2,-,N/A,,Scattered Clouds,160,2013-06-26 05:33:00
12:53 AM,77.0,71.6,83,29.62,10.0,SE,11.5,-,N/A,Thunderstorm,Scattered Clouds,140,2013-06-26 05:53:00
1:13 AM,77.0,71.6,83,29.63,10.0,SSE,12.7,-,N/A,,Clear,160,2013-06-26 06:13:00
1:33 AM,75.2,71.6,89,29.64,10.0,South,13.8,-,N/A,,Scattered Clouds,170,2013-06-26 06:33:00
1:53 AM,75.2,60.8,61,29.66,10.0,WSW,24.2,36.8,N/A,,Mostly Cloudy,240,2013-06-26 06:53:00
2:13 AM,71.6,60.8,69,29.65,10.0,WSW,15.0,24.2,N/A,Thunderstorm,Mostly Cloudy,240,2013-06-26 07:13:00
2:33 AM,69.8,62.6,78,29.66,10.0,West,11.5,-,N/A,Rain,Light Rain,260,2013-06-26 07:33:00
2:53 AM,68.0,62.6,83,29.68,10.0,West,11.5,-,N/A,,Drizzle,270,2013-06-26 07:53:00
3:13 AM,66.2,62.6,88,29.70,10.0,NNW,9.2,-,N/A,Rain-Thunderstorm,Light Thunderstorms and Rain,340,2013-06-26 08:13:00
3:33 AM,68.0,66.2,94,29.70,10.0,NW,9.2,-,0.02,Rain-Thunderstorm,Rain,320,2013-06-26 08:33:00
3:53 AM,68.0,66.2,94,29.68,10.0,North,6.9,-,0.05,Rain,Light Rain,350,2013-06-26 08:53:00
4:13 AM,68.0,66.2,94,29.65,10.0,East,8.1,-,0.03,Rain-Thunderstorm,Rain,80,2013-06-26 09:13:00
4:33 AM,68.0,66.2,94,29.64,10.0,NE,9.2,-,0.05,Rain,Light Rain,40,2013-06-26 09:33:00
4:53 AM,68.0,66.2,94,29.64,10.0,NE,4.6,-,0.05,,Clear,40,2013-06-26 09:53:00
5:13 AM,68.0,66.2,94,29.65,10.0,Calm,Calm,-,N/A,,Clear,0,2013-06-26 10:13:00
5:33 AM,66.2,66.2,100,29.65,10.0,SE,6.9,-,N/A,,Clear,140,2013-06-26 10:33:00
5:53 AM,66.2,66.2,100,29.65,10.0,SE,3.5,-,N/A,,Clear,140,2013-06-26 10:53:00
6:13 AM,66.2,66.2,100,29.67,10.0,South,4.6,-,N/A,,Clear,180,2013-06-26 11:13:00
6:33 AM,66.2,66.2,100,29.68,10.0,SSW,3.5,-,N/A,,Clear,210,2013-06-26 11:33:00
6:53 AM,66.2,66.2,100,29.68,10.0,Calm,Calm,-,N/A,,Clear,0,2013-06-26 11:53:00
7:13 AM,66.2,66.2,100,29.69,10.0,SSW,4.6,-,N/A,,Scattered Clouds,210,2013-06-26 12:13:00
7:33 AM,69.8,66.2,88,29.69,10.0,SSW,8.1,-,N/A,,Mostly Cloudy,210,2013-06-26 12:33:00
7:53 AM,69.8,66.2,88,29.69,10.0,SW,5.8,-,N/A,,Overcast,230,2013-06-26 12:53:00
8:13 AM,69.8,66.2,88,29.70,10.0,SSW,6.9,-,N/A,,Mostly Cloudy,210,2013-06-26 13:13:00
8:33 AM,69.8,66.2,88,29.70,10.0,SW,4.6,-,N/A,,Mostly Cloudy,220,2013-06-26 13:33:00
8:53 AM,69.8,66.2,88,29.70,10.0,WSW,8.1,-,N/A,,Overcast,240,2013-06-26 13:53:00
9:13 AM,71.6,66.2,83,29.71,10.0,WSW,8.1,-,N/A,,Overcast,240,2013-06-26 14:13:00
9:34 AM,71.6,66.2,83,29.71,10.0,WSW,6.9,-,N/A,,Overcast,250,2013-06-26 14:34:00
9:53 AM,73.4,66.2,78,29.72,10.0,West,8.1,-,N/A,,Mostly Cloudy,280,2013-06-26 14:53:00
10:13 AM,73.4,66.2,78,29.72,10.0,WNW,9.2,-,N/A,,Mostly Cloudy,290,2013-06-26 15:13:00
10:33 AM,73.4,68.0,83,29.73,10.0,WNW,10.4,-,N/A,,Mostly Cloudy,290,2013-06-26 15:33:00
10:53 AM,73.4,68.0,83,29.74,10.0,WNW,10.4,-,N/A,,Mostly Cloudy,300,2013-06-26 15:53:00
11:13 AM,73.4,68.0,83,29.75,10.0,West,10.4,-,N/A,,Mostly Cloudy,280,2013-06-26 16:13:00
11:33 AM,75.2,68.0,78,29.75,10.0,NW,10.4,16.1,N/A,,Mostly Cloudy,320,2013-06-26 16:33:00
11:53 AM,75.2,68.0,78,29.76,10.0,WNW,11.5,-,N/A,,Scattered Clouds,290,2013-06-26 16:53:00
12:13 PM,75.2,68.0,78,29.77,10.0,NW,13.8,19.6,N/A,,Mostly Cloudy,310,2013-06-26 17:13:00
12:34 PM,77.0,68.0,74,29.77,10.0,NW,13.8,21.9,N/A,,Scattered Clouds,320,2013-06-26 17:34:00
12:53 PM,77.0,66.2,69,29.77,10.0,NW,15.0,19.6,N/A,,Scattered Clouds,310,2013-06-26 17:53:00
1:13 PM,77.0,66.2,69,29.77,10.0,NW,11.5,21.9,N/A,,Scattered Clouds,320,2013-06-26 18:13:00
1:34 PM,78.8,66.2,65,29.77,10.0,NW,15.0,-,N/A,,Scattered Clouds,310,2013-06-26 18:34:00
1:53 PM,78.8,66.2,65,29.77,10.0,NW,15.0,20.7,N/A,,Scattered Clouds,310,2013-06-26 18:53:00
2:13 PM,78.8,66.2,65,29.77,10.0,NW,16.1,20.7,N/A,,Scattered Clouds,310,2013-06-26 19:13:00
2:33 PM,78.8,66.2,65,29.77,10.0,NNW,17.3,24.2,N/A,,Scattered Clouds,330,2013-06-26 19:33:00
2:53 PM,80.6,66.2,61,29.77,10.0,NW,15.0,20.7,N/A,,Clear,310,2013-06-26 19:53:00
3:13 PM,80.6,66.2,61,29.77,10.0,NNW,12.7,18.4,N/A,,Scattered Clouds,330,2013-06-26 20:13:00
3:33 PM,80.6,64.4,58,29.76,10.0,WNW,15.0,20.7,N/A,,Scattered Clouds,290,2013-06-26 20:33:00
3:53 PM,80.6,64.4,58,29.76,10.0,NNW,17.3,23.0,N/A,,Clear,340,2013-06-26 20:53:00
4:13 PM,82.4,64.4,54,29.77,10.0,NW,11.5,17.3,N/A,,Clear,320,2013-06-26 21:13:00
4:33 PM,82.4,62.6,51,29.77,10.0,NW,15.0,20.7,N/A,,Clear,320,2013-06-26 21:33:00
4:53 PM,82.4,60.8,48,29.77,10.0,NW,13.8,-,N/A,,Clear,320,2013-06-26 21:53:00
5:13 PM,80.6,60.8,51,29.76,10.0,NW,11.5,20.7,N/A,,Clear,320,2013-06-26 22:13:00
5:33 PM,80.6,62.6,54,29.77,10.0,NNW,9.2,-,N/A,,Clear,330,2013-06-26 22:33:00
5:53 PM,82.4,62.6,51,29.77,10.0,NW,8.1,-,N/A,,Clear,320,2013-06-26 22:53:00
6:13 PM,80.6,62.6,54,29.77,10.0,NW,6.9,-,N/A,,Clear,320,2013-06-26 23:13:00
6:33 PM,78.8,62.6,57,29.76,10.0,NW,4.6,-,N/A,,Clear,320,2013-06-26 23:33:00
6:53 PM,80.6,64.4,58,29.78,10.0,West,3.5,-,N/A,,Clear,270,2013-06-26 23:53:00
7:13 PM,80.6,64.4,58,29.78,10.0,West,4.6,-,N/A,,Clear,270,2013-06-27 00:13:00
7:33 PM,80.6,62.6,54,29.78,10.0,WSW,3.5,-,N/A,,Scattered Clouds,250,2013-06-27 00:33:00
7:53 PM,78.8,66.2,65,29.78,10.0,SW,3.5,-,N/A,,Scattered Clouds,230,2013-06-27 00:53:00
8:13 PM,78.8,64.4,61,29.77,10.0,SSW,3.5,-,N/A,,Clear,200,2013-06-27 01:13:00
8:33 PM,78.8,64.4,61,29.77,10.0,WSW,9.2,-,N/A,,Clear,240,2013-06-27 01:33:00
8:53 PM,75.2,62.6,65,29.77,10.0,West,6.9,-,N/A,,Clear,260,2013-06-27 01:53:00
9:13 PM,73.4,62.6,69,29.78,10.0,West,4.6,-,N/A,,Clear,260,2013-06-27 02:13:00
9:33 PM,71.6,64.4,78,29.78,10.0,West,4.6,-,N/A,,Scattered Clouds,260,2013-06-27 02:33:00
9:53 PM,71.6,64.4,78,29.79,10.0,WSW,4.6,-,N/A,,Scattered Clouds,240,2013-06-27 02:53:00
10:13 PM,71.6,64.4,78,29.80,10.0,SW,4.6,-,N/A,,Scattered Clouds,230,2013-06-27 03:13:00
10:33 PM,69.8,64.4,83,29.80,10.0,West,3.5,-,N/A,,Scattered Clouds,280,2013-06-27 03:33:00
10:53 PM,69.8,64.4,83,29.80,10.0,Calm,Calm,-,N/A,,Scattered Clouds,0,2013-06-27 03:53:00
11:13 PM,69.8,64.4,83,29.80,10.0,Calm,Calm,-,N/A,,Clear,0,2013-06-27 04:13:00
11:33 PM,69.8,64.4,83,29.81,10.0,Calm,Calm,-,N/A,,Clear,0,2013-06-27 04:33:00
11:53 PM,68.0,64.4,88,29.81,10.0,WSW,3.5,-,N/A,,Clear,250,2013-06-27 04:53:00